When you browse on this site, cookies collect data to enhance your experience and personalize the content and advertising you see.
Visit our Privacy Policy to learn more. By continuing to use the site, you agree to this use of cookies and data.
  • In Lithuania
  • List of Countries
  • For 7 days
  • Water Temperature
  • Satellite Maps
  • Weather Map
  • Weather Widgets
  • user-avatar
    Login

    Hourly Weather Calgary

    Today, 19 July, Friday

    Time Temperature Precipitation Wind Pressure Humidity
    00:00 +7°C° 0 mm 2 mps 662 mmHg 82%
    01:00 +6°C° 0 mm 2 mps 661 mmHg 82%
    02:00 +6°C° 0 mm 2 mps 661 mmHg 82%
    03:00 +6°C° 0 mm 2 mps 661 mmHg 82%
    04:00 +5°C° 0 mm 4 mps 662 mmHg 85%
    05:00 +8°C° 0 mm 3 mps 662 mmHg 80%
    06:00 +9°C° 0 mm 3 mps 662 mmHg 76%
    07:00 +12°C° 0 mm 2 mps 663 mmHg 72%
    08:00 +13°C° 0 mm 2 mps 663 mmHg 66%
    09:00 +15°C° 0 mm 2 mps 663 mmHg 60%
    10:00 +16°C° 0 mm 2 mps 664 mmHg 53%
    11:00 +14°C° 0.1 mm 3 mps 664 mmHg 57%
    12:00 +14°C° 0.1 mm 4 mps 664 mmHg 61%
    13:00 +14°C° 0.1 mm 4 mps 664 mmHg 64%
    14:00 +13°C° 0.5 mm 5 mps 664 mmHg 72%
    15:00 +10°C° 0.5 mm 5 mps 664 mmHg 80%
    16:00 +9°C° 0.5 mm 5 mps 664 mmHg 88%
    17:00 +9°C° 1.6 mm 5 mps 664 mmHg 89%
    18:00 +8°C° 1.6 mm 5 mps 665 mmHg 90%
    19:00 +8°C° 1.6 mm 5 mps 666 mmHg 92%
    20:00 +8°C° 0.9 mm 5 mps 666 mmHg 92%
    21:00 +8°C° 0.9 mm 6 mps 667 mmHg 92%
    22:00 +8°C° 0.9 mm 6 mps 667 mmHg 93%
    23:00 +8°C° 0.4 mm 5 mps 668 mmHg 93%

    Tomorrow, 20 July, Saturday

    Time Temperature Precipitation Wind Pressure Humidity
    00:00 +8°C° 0.4 mm 5 mps 668 mmHg 93%
    01:00 +8°C° 0.4 mm 4 mps 668 mmHg 93%
    02:00 +8°C° 0.2 mm 4 mps 669 mmHg 93%
    03:00 +8°C° 0.2 mm 4 mps 669 mmHg 93%
    04:00 +8°C° 0.2 mm 4 mps 669 mmHg 93%
    05:00 +10°C° 0 mm 4 mps 670 mmHg 91%
    06:00 +11°C° 0 mm 4 mps 670 mmHg 90%
    07:00 +12°C° 0 mm 4 mps 671 mmHg 89%
    08:00 +14°C° 0.7 mm 4 mps 671 mmHg 85%
    09:00 +16°C° 0.7 mm 3 mps 671 mmHg 81%
    10:00 +17°C° 0.7 mm 3 mps 672 mmHg 78%
    11:00 +18°C° 1.1 mm 3 mps 672 mmHg 75%
    12:00 +18°C° 1.1 mm 2 mps 672 mmHg 72%
    13:00 +19°C° 1.1 mm 2 mps 672 mmHg 69%
    14:00 +19°C° 0.7 mm 2 mps 672 mmHg 68%
    15:00 +20°C° 0.7 mm 1 mps 672 mmHg 68%
    16:00 +20°C° 0.7 mm 1 mps 672 mmHg 67%
    17:00 +19°C° 0.2 mm 1 mps 672 mmHg 72%
    18:00 +18°C° 0.2 mm 1 mps 672 mmHg 77%
    19:00 +15°C° 0.2 mm 1 mps 671 mmHg 81%
    20:00 +14°C° 0 mm 1 mps 671 mmHg 83%
    21:00 +13°C° 0 mm 1 mps 671 mmHg 84%
    22:00 +12°C° 0 mm 1 mps 671 mmHg 86%
    23:00 +12°C° 0 mm 1 mps 671 mmHg 86%

    Day after tomorrow, 21 July, Sunday

    Time Temperature Precipitation Wind Pressure Humidity
    00:00 +11°C° 0 mm 1 mps 671 mmHg 87%
    01:00 +11°C° 0 mm 1 mps 671 mmHg 87%
    02:00 +9°C° 0 mm 2 mps 671 mmHg 87%
    03:00 +9°C° 0 mm 2 mps 671 mmHg 87%
    04:00 +9°C° 0 mm 2 mps 671 mmHg 87%
    05:00 +11°C° 0 mm 3 mps 672 mmHg 84%
    06:00 +13°C° 0 mm 3 mps 672 mmHg 81%
    07:00 +14°C° 0 mm 4 mps 672 mmHg 78%
    08:00 +16°C° 0 mm 5 mps 672 mmHg 73%
    09:00 +19°C° 0 mm 6 mps 673 mmHg 67%
    10:00 +20°C° 0 mm 7 mps 673 mmHg 62%
    11:00 +21°C° 0 mm 7 mps 672 mmHg 61%
    12:00 +21°C° 0 mm 7 mps 672 mmHg 59%
    13:00 +22°C° 0 mm 7 mps 672 mmHg 58%
    14:00 +22°C° 0 mm 7 mps 672 mmHg 60%
    15:00 +22°C° 0 mm 6 mps 672 mmHg 62%
    16:00 +22°C° 0 mm 6 mps 671 mmHg 63%
    17:00 +21°C° 0 mm 5 mps 671 mmHg 66%
    18:00 +20°C° 0 mm 5 mps 671 mmHg 70%
    19:00 +18°C° 0 mm 4 mps 670 mmHg 73%
    20:00 +17°C° 0 mm 4 mps 670 mmHg 73%
    21:00 +15°C° 0 mm 4 mps 670 mmHg 74%
    22:00 +14°C° 0 mm 3 mps 670 mmHg 74%
    23:00 +13°C° 0 mm 3 mps 670 mmHg 77%

    22 July, Monday

    Time Temperature Precipitation Wind Pressure Humidity
    00:00 +13°C° 0 mm 2 mps 670 mmHg 79%
    01:00 +12°C° 0 mm 2 mps 669 mmHg 82%
    02:00 +12°C° 0 mm 1 mps 669 mmHg 81%
    03:00 +11°C° 0 mm 1 mps 669 mmHg 80%
    04:00 +11°C° 0 mm 1 mps 669 mmHg 80%
    05:00 +13°C° 0 mm 1 mps 670 mmHg 75%
    06:00 +16°C° 0 mm 1 mps 670 mmHg 70%
    07:00 +19°C° 0 mm 1 mps 671 mmHg 65%
    08:00 +20°C° 0 mm 1 mps 671 mmHg 63%
    09:00 +22°C° 0 mm 1 mps 671 mmHg 61%
    10:00 +24°C° 0 mm 1 mps 671 mmHg 59%
    11:00 +24°C° 0 mm 1 mps 671 mmHg 57%
    12:00 +25°C° 0 mm 2 mps 671 mmHg 56%
    13:00 +26°C° 0 mm 2 mps 671 mmHg 54%
    14:00 +26°C° 0 mm 2 mps 671 mmHg 56%
    15:00 +26°C° 0 mm 2 mps 671 mmHg 58%
    16:00 +27°C° 0 mm 3 mps 671 mmHg 60%
    17:00 +25°C° 0 mm 2 mps 671 mmHg 64%
    18:00 +24°C° 0 mm 2 mps 671 mmHg 68%
    19:00 +21°C° 0 mm 2 mps 670 mmHg 72%
    20:00 +21°C° 0 mm 1 mps 670 mmHg 73%
    21:00 +19°C° 0 mm 1 mps 670 mmHg 75%
    22:00 +18°C° 0 mm 1 mps 670 mmHg 76%
    23:00 +16°C° 0 mm 1 mps 670 mmHg 76%

    23 July, Tuesday

    Time Temperature Precipitation Wind Pressure Humidity
    00:00 +16°C° 0 mm 1 mps 669 mmHg 77%
    01:00 +16°C° 0 mm 1 mps 669 mmHg 77%
    02:00 +15°C° 0 mm 1 mps 669 mmHg 76%
    03:00 +15°C° 0 mm 1 mps 669 mmHg 75%
    04:00 +15°C° 0 mm 2 mps 669 mmHg 73%
    05:00 +16°C° 0 mm 1 mps 669 mmHg 71%
    06:00 +19°C° 0 mm 1 mps 670 mmHg 68%
    07:00 +21°C° 0 mm 1 mps 670 mmHg 66%
    08:00 +23°C° 0 mm 1 mps 671 mmHg 63%
    09:00 +24°C° 0 mm 1 mps 671 mmHg 61%
    10:00 +26°C° 0 mm 1 mps 671 mmHg 58%
    11:00 +27°C° 0 mm 1 mps 671 mmHg 57%
    12:00 +28°C° 0 mm 2 mps 671 mmHg 56%
    13:00 +29°C° 0 mm 2 mps 671 mmHg 55%
    14:00 +29°C° 0 mm 2 mps 670 mmHg 57%
    15:00 +29°C° 0 mm 2 mps 670 mmHg 59%
    16:00 +29°C° 0 mm 2 mps 669 mmHg 61%
    17:00 +27°C° 0 mm 2 mps 669 mmHg 67%
    18:00 +25°C° 0 mm 2 mps 668 mmHg 72%
    19:00 +24°C° 0 mm 2 mps 668 mmHg 77%
    20:00 +22°C° 0 mm 1 mps 668 mmHg 78%
    21:00 +21°C° 0 mm 1 mps 667 mmHg 78%
    22:00 +20°C° 0 mm 1 mps 667 mmHg 78%
    23:00 +19°C° 0 mm 1 mps 667 mmHg 79%

    24 July, Wednesday

    Time Temperature Precipitation Wind Pressure Humidity
    00:00 +19°C° 0 mm 1 mps 666 mmHg 80%
    01:00 +18°C° 0 mm 1 mps 666 mmHg 82%
    02:00 +18°C° 0 mm 1 mps 666 mmHg 79%
    03:00 +17°C° 0 mm 2 mps 666 mmHg 76%
    04:00 +16°C° 0 mm 2 mps 665 mmHg 74%
    05:00 +18°C° 0 mm 2 mps 666 mmHg 72%
    06:00 +20°C° 0 mm 2 mps 666 mmHg 71%
    07:00 +23°C° 0 mm 2 mps 666 mmHg 69%
    08:00 +25°C° 0 mm 2 mps 666 mmHg 63%
    09:00 +27°C° 0 mm 3 mps 666 mmHg 56%
    10:00 +29°C° 0 mm 3 mps 666 mmHg 50%
    11:00 +29°C° 0 mm 4 mps 666 mmHg 50%
    12:00 +28°C° 0 mm 5 mps 666 mmHg 50%
    13:00 +28°C° 0 mm 6 mps 665 mmHg 50%
    14:00 +28°C° 0 mm 6 mps 666 mmHg 50%
    15:00 +27°C° 0 mm 5 mps 666 mmHg 50%
    16:00 +27°C° 0 mm 5 mps 666 mmHg 50%
    17:00 +23°C° 0 mm 5 mps 665 mmHg 49%
    18:00 +20°C° 0 mm 6 mps 665 mmHg 47%
    19:00 +17°C° 0 mm 6 mps 665 mmHg 46%
    20:00 +16°C° 0 mm 5 mps 665 mmHg 42%
    21:00 +15°C° 0 mm 5 mps 665 mmHg 38%
    22:00 +14°C° 0 mm 4 mps 666 mmHg 33%
    23:00 +13°C° 0 mm 3 mps 665 mmHg 35%
    Show more